Regional Weather Roundup
Issued by NWS

Home | Current Version | Previous Version | Graphics & Text | Print | Product List | Glossary On
Versions: 1 2 3 4 5 6 7 8 9 10 11 12 13 14 15 16 17 18 19 20 21 22 23 24 25 26 27 28 29 30 31 32 33 34 35 36 37 38 39 40 41 42 43 44 45 46 47 48 49 50
000
ASUS43 KFSD 201602
RWRSD

WEATHER ROUNDUP FOR SOUTH DAKOTA
NATIONAL WEATHER SERVICE SIOUX FALLS SD
1100 AM CDT WED AUG 20 2014

NOTE: "FAIR" INDICATES FEW OR NO CLOUDS BELOW 12,000 FEET WITH NO
SIGNIFICANT WEATHER AND/OR OBSTRUCTIONS TO VISIBILITY.


SDZ001>005-009-010-012>017-201700-
NORTHWEST AND NORTH CENTRAL SOUTH DAKOTA

CITY           SKY/WX    TMP DP  RH WIND       PRES   REMARKS
BUFFALO          N/A     73  63  70 SE12      29.66S
FAITH            N/A     73  65  75 S12       29.71S
MOBRIDGE       CLOUDY    77  65  66 S16       29.70F
$$

SDZ012>016-024>037-041>051-057-063-072>074-201700-
SOUTHWEST AND SOUTH CENTRAL SOUTH DAKOTA

CITY           SKY/WX    TMP DP  RH WIND       PRES   REMARKS
RAPID CTY ARPT CLOUDY    73  60  63 VRB3      29.75R
PIERRE         PTSUNNY   76  68  76 SE13      29.70R
CUSTER         PTSUNNY   70  50  49 W12G17    29.90R
ELLSWORTH AFB  CLOUDY    75  59  58 S2        29.74R
PHILIP         CLOUDY    76  64  66 SE6       29.71R
PINE RIDGE     CLOUDY    68  63  84 CALM      29.79R
WINNER         FAIR      81  69  67 SE12      29.73F
$$

SDZ004>011-016>023-039-040-201700-
NORTHEAST SOUTH DAKOTA

CITY           SKY/WX    TMP DP  RH WIND       PRES   REMARKS
ABERDEEN       PTSUNNY   75  66  73 SE13      29.77R
WATERTOWN      SUNNY     76  65  68 S9        29.82R
SISSETON         N/A     78  68  71 S10       29.78R
$$

SDZ017-020-022-023-036>040-048>070-201700-
SOUTHEAST SOUTH DAKOTA

CITY           SKY/WX    TMP DP  RH WIND       PRES   REMARKS
SIOUX FALLS    PTSUNNY   77  66  68 SE13      29.77F
HURON          MOSUNNY   79  67  66 SE8       29.75S
CHAMBERLAIN    PTSUNNY   78  69  73 SE16      29.73S
MITCHELL       MOSUNNY   79  68  69 S13       29.76R
YANKTON        PTSUNNY   75  66  73 S22       29.78R
$$

ABBREVIATIONS USED IN REMARKS
   TC - TEMPERATURE IN CELSIUS
  WCI - WIND CHILL INDEX
   HX - HEAT INDEX
  VSB - VISIBILITY




USA.gov is the U.S. government's official web portal to all federal, state and local government web resources and services.